When you browse on this site, cookies collect data to enhance your experience and personalize the content and advertising you see.
Visit our Privacy Policy to learn more. By continuing to use the site, you agree to this use of cookies and data.
  • In Schweiz
  • Länderverzeichnis
  • Für 7 Tage
  • Wassertemperatur
  • Wetterkarte
  • Widgets
  • user-avatar
    Anmelden

    Stündliche Wetter Klagenfurt

    Heute, 26 Mai, Dienstag

    Zeit Temperatur Niederschläge Wind Luftdruck Luftfeuchtigkeit
    00:00 +7°C° 0 mm 1 m/S 697 mmHg 90%
    01:00 +6°C° 0 mm 0 m/S 697 mmHg 95%
    02:00 +6°C° 0 mm 1 m/S 697 mmHg 94%
    03:00 +6°C° 0 mm 1 m/S 697 mmHg 94%
    04:00 +6°C° 0 mm 1 m/S 697 mmHg 94%
    05:00 +7°C° 0 mm 1 m/S 697 mmHg 90%
    06:00 +9°C° 0 mm 1 m/S 697 mmHg 85%
    07:00 +10°C° 0 mm 0 m/S 698 mmHg 81%
    08:00 +12°C° 0.1 mm 1 m/S 698 mmHg 72%
    09:00 +13°C° 0.1 mm 1 m/S 698 mmHg 62%
    10:00 +15°C° 0.1 mm 2 m/S 699 mmHg 53%
    11:00 +15°C° 0.2 mm 2 m/S 699 mmHg 50%
    12:00 +16°C° 0.2 mm 2 m/S 698 mmHg 48%
    13:00 +18°C° 0 mm 1 m/S 699 mmHg 46%
    14:00 +16°C° 0.4 mm 2 m/S 698 mmHg 51%
    15:00 +16°C° 0.4 mm 2 m/S 698 mmHg 56%
    16:00 +15°C° 0.4 mm 2 m/S 698 mmHg 60%
    17:00 +14°C° 0.2 mm 2 m/S 698 mmHg 65%
    18:00 +12°C° 0.2 mm 2 m/S 698 mmHg 70%
    19:00 +11°C° 0.2 mm 1 m/S 698 mmHg 75%
    20:00 +10°C° 0 mm 1 m/S 698 mmHg 77%
    21:00 +8°C° 0 mm 1 m/S 698 mmHg 79%
    22:00 +7°C° 0 mm 1 m/S 699 mmHg 81%
    23:00 +6°C° 0 mm 1 m/S 699 mmHg 82%

    Morgen, 27 Mai, Mittwoch

    Zeit Temperatur Niederschläge Wind Luftdruck Luftfeuchtigkeit
    00:00 +6°C° 0 mm 1 m/S 699 mmHg 84%
    01:00 +5°C° 0 mm 1 m/S 699 mmHg 86%
    02:00 +5°C° 0 mm 1 m/S 698 mmHg 86%
    03:00 +5°C° 0 mm 1 m/S 698 mmHg 87%
    04:00 +5°C° 0 mm 1 m/S 698 mmHg 87%
    05:00 +6°C° 0 mm 1 m/S 699 mmHg 81%
    06:00 +8°C° 0 mm 1 m/S 699 mmHg 74%
    07:00 +10°C° 0 mm 1 m/S 699 mmHg 68%
    08:00 +13°C° 0 mm 1 m/S 699 mmHg 58%
    09:00 +15°C° 0 mm 1 m/S 700 mmHg 48%
    10:00 +18°C° 0 mm 1 m/S 700 mmHg 38%
    11:00 +19°C° 0 mm 1 m/S 700 mmHg 36%
    12:00 +20°C° 0 mm 1 m/S 700 mmHg 34%
    13:00 +21°C° 0 mm 1 m/S 700 mmHg 32%
    14:00 +21°C° 0 mm 1 m/S 699 mmHg 33%
    15:00 +21°C° 0 mm 1 m/S 699 mmHg 35%
    16:00 +20°C° 0 mm 1 m/S 698 mmHg 36%
    17:00 +18°C° 0 mm 1 m/S 698 mmHg 47%
    18:00 +15°C° 0 mm 1 m/S 698 mmHg 58%
    19:00 +13°C° 0 mm 0 m/S 697 mmHg 69%
    20:00 +12°C° 0 mm 1 m/S 697 mmHg 71%
    21:00 +11°C° 0 mm 1 m/S 698 mmHg 72%
    22:00 +10°C° 0 mm 1 m/S 698 mmHg 74%
    23:00 +9°C° 0 mm 1 m/S 698 mmHg 76%

    übermorgen, 28 Mai, Donnerstag

    Zeit Temperatur Niederschläge Wind Luftdruck Luftfeuchtigkeit
    00:00 +8°C° 0 mm 1 m/S 697 mmHg 79%
    01:00 +8°C° 0 mm 1 m/S 697 mmHg 82%
    02:00 +7°C° 0 mm 1 m/S 697 mmHg 82%
    03:00 +7°C° 0 mm 1 m/S 697 mmHg 83%
    04:00 +7°C° 0 mm 1 m/S 696 mmHg 84%
    05:00 +8°C° 0 mm 1 m/S 696 mmHg 78%
    06:00 +10°C° 0 mm 1 m/S 696 mmHg 72%
    07:00 +11°C° 0 mm 0 m/S 696 mmHg 65%
    08:00 +13°C° 0 mm 0 m/S 697 mmHg 58%
    09:00 +15°C° 0 mm 0 m/S 697 mmHg 50%
    10:00 +19°C° 0 mm 1 m/S 697 mmHg 42%
    11:00 +20°C° 0 mm 1 m/S 697 mmHg 42%
    12:00 +20°C° 0 mm 1 m/S 697 mmHg 41%
    13:00 +21°C° 0 mm 1 m/S 697 mmHg 41%
    14:00 +19°C° 0.3 mm 1 m/S 696 mmHg 52%
    15:00 +18°C° 0.3 mm 1 m/S 696 mmHg 63%
    16:00 +15°C° 0.3 mm 1 m/S 695 mmHg 74%
    17:00 +14°C° 0.5 mm 1 m/S 695 mmHg 79%
    18:00 +13°C° 0.5 mm 1 m/S 695 mmHg 84%
    19:00 +11°C° 0.5 mm 0 m/S 695 mmHg 89%
    20:00 +10°C° 0 mm 0 m/S 695 mmHg 90%
    21:00 +10°C° 0 mm 1 m/S 695 mmHg 90%
    22:00 +9°C° 0 mm 1 m/S 695 mmHg 91%
    23:00 +8°C° 0 mm 1 m/S 695 mmHg 92%

    29 Mai, Freitag

    Zeit Temperatur Niederschläge Wind Luftdruck Luftfeuchtigkeit
    00:00 +8°C° 0 mm 1 m/S 695 mmHg 93%
    01:00 +7°C° 0 mm 1 m/S 695 mmHg 93%
    02:00 +7°C° 0 mm 1 m/S 694 mmHg 93%
    03:00 +6°C° 0 mm 1 m/S 694 mmHg 93%
    04:00 +6°C° 0 mm 1 m/S 694 mmHg 93%
    05:00 +7°C° 0 mm 1 m/S 694 mmHg 90%
    06:00 +9°C° 0 mm 1 m/S 694 mmHg 88%
    07:00 +10°C° 0 mm 1 m/S 694 mmHg 85%
    08:00 +12°C° 0 mm 1 m/S 695 mmHg 71%
    09:00 +14°C° 0 mm 1 m/S 695 mmHg 57%
    10:00 +18°C° 0 mm 1 m/S 695 mmHg 42%
    11:00 +18°C° 0 mm 1 m/S 695 mmHg 41%
    12:00 +18°C° 0 mm 1 m/S 694 mmHg 39%
    13:00 +18°C° 0 mm 2 m/S 694 mmHg 37%
    14:00 +19°C° 0 mm 1 m/S 694 mmHg 39%
    15:00 +18°C° 0 mm 1 m/S 693 mmHg 41%
    16:00 +18°C° 0 mm 1 m/S 693 mmHg 44%
    17:00 +15°C° 0.1 mm 1 m/S 693 mmHg 52%
    18:00 +14°C° 0.1 mm 1 m/S 693 mmHg 61%
    19:00 +12°C° 0.1 mm 1 m/S 693 mmHg 70%
    20:00 +11°C° 0 mm 1 m/S 693 mmHg 73%
    21:00 +9°C° 0 mm 1 m/S 693 mmHg 76%
    22:00 +8°C° 0 mm 1 m/S 693 mmHg 79%
    23:00 +8°C° 0 mm 1 m/S 693 mmHg 80%

    30 Mai, Samstag

    Zeit Temperatur Niederschläge Wind Luftdruck Luftfeuchtigkeit
    00:00 +7°C° 0 mm 0 m/S 693 mmHg 80%
    01:00 +6°C° 0 mm 0 m/S 693 mmHg 81%
    02:00 +6°C° 0 mm 0 m/S 693 mmHg 82%
    03:00 +6°C° 0 mm 0 m/S 693 mmHg 84%
    04:00 +5°C° 0 mm 0 m/S 693 mmHg 85%
    05:00 +7°C° 0 mm 0 m/S 693 mmHg 80%
    06:00 +9°C° 0 mm 1 m/S 693 mmHg 75%
    07:00 +10°C° 0 mm 1 m/S 693 mmHg 69%
    08:00 +12°C° 0 mm 1 m/S 693 mmHg 61%
    09:00 +13°C° 0 mm 1 m/S 693 mmHg 53%
    10:00 +15°C° 0 mm 2 m/S 694 mmHg 45%
    11:00 +16°C° 0 mm 2 m/S 693 mmHg 43%
    12:00 +16°C° 0 mm 2 m/S 693 mmHg 41%
    13:00 +17°C° 0 mm 2 m/S 693 mmHg 38%
    14:00 +17°C° 0 mm 2 m/S 693 mmHg 41%
    15:00 +16°C° 0 mm 1 m/S 692 mmHg 43%
    16:00 +16°C° 0 mm 1 m/S 692 mmHg 46%
    17:00 +14°C° 0 mm 1 m/S 692 mmHg 53%
    18:00 +13°C° 0 mm 1 m/S 692 mmHg 61%
    19:00 +12°C° 0 mm 1 m/S 692 mmHg 69%
    20:00 +11°C° 0 mm 1 m/S 692 mmHg 70%
    21:00 +10°C° 0 mm 1 m/S 692 mmHg 72%
    22:00 +8°C° 0 mm 0 m/S 692 mmHg 74%
    23:00 +8°C° 0 mm 0 m/S 692 mmHg 76%

    31 Mai, Sonntag

    Zeit Temperatur Niederschläge Wind Luftdruck Luftfeuchtigkeit
    00:00 +7°C° 0 mm 0 m/S 692 mmHg 77%
    01:00 +7°C° 0 mm 0 m/S 692 mmHg 79%
    02:00 +6°C° 0 mm 0 m/S 692 mmHg 81%
    03:00 +6°C° 0 mm 0 m/S 692 mmHg 83%
    04:00 +6°C° 0 mm 0 m/S 691 mmHg 85%
    05:00 +7°C° 0 mm 0 m/S 692 mmHg 79%
    06:00 +9°C° 0 mm 0 m/S 692 mmHg 73%
    07:00 +10°C° 0 mm 0 m/S 692 mmHg 67%
    08:00 +13°C° 0 mm 1 m/S 692 mmHg 62%
    09:00 +14°C° 0 mm 1 m/S 693 mmHg 56%
    10:00 +16°C° 0 mm 1 m/S 693 mmHg 50%
    11:00 +18°C° 0.1 mm 1 m/S 693 mmHg 48%
    12:00 +18°C° 0.1 mm 1 m/S 692 mmHg 46%
    13:00 +19°C° 0.1 mm 1 m/S 692 mmHg 44%
    14:00 +18°C° 0.1 mm 1 m/S 692 mmHg 47%
    15:00 +18°C° 0.1 mm 1 m/S 692 mmHg 50%
    16:00 +16°C° 0.1 mm 1 m/S 691 mmHg 52%
    17:00 +15°C° 0.2 mm 1 m/S 691 mmHg 61%
    18:00 +14°C° 0.2 mm 1 m/S 691 mmHg 70%
    19:00 +11°C° 0.2 mm 0 m/S 691 mmHg 79%
    20:00 +11°C° 0.1 mm 0 m/S 691 mmHg 80%
    21:00 +10°C° 0.1 mm 0 m/S 691 mmHg 82%
    22:00 +9°C° 0.1 mm 0 m/S 691 mmHg 83%
    23:00 +9°C° 0.1 mm 0 m/S 691 mmHg 84%
    Mehr zeigen